South Haven, MI

10:37 PM EST on January 18, 2017 (GMT -0500)
South Haven

Weather History for KLWA - March, 2013

Change the Weather History Date:

Tuesday, March 5, 2013

  Actual Average (KBEH) Record (KBEH)
Temperature  
Mean Temperature 30 °F -  
Max Temperature 32 °F 42 °F 76 °F (1983)
Min Temperature 28 °F 25 °F 1 °F (2015)
Degree Days  
Heating Degree Days 35    
Moisture  
Dew Point 21 °F    
Average Humidity 70    
Maximum Humidity 94    
Minimum Humidity 57    
Precipitation  
Precipitation 0.00 in - - ()
Sea Level Pressure  
Sea Level Pressure 29.91 in    
Wind  
Wind Speed 10 mph (ENE)    
Max Wind Speed 18 mph    
Max Gust Speed 24 mph    
Visibility 7 miles    
Events Snow    
Averages and records for this station are not official NWS values.
T = Trace of Precipitation, MM = Missing Value Source: NWS Daily Summary

Daily Weather History Graph

Daily Weather History Graph

Search for Another Location

Airport or City:

Trip Planner

Search our weather history database for the weather conditions in past years. The results will help you decide how hot, cold, wet, or windy it might be!

Date:

Astronomy

Mar. 05, 2013 Rise Set
Actual Time 7:13 AM EST 6:40 PM EST
Civil Twilight 6:45 AM EST 7:08 PM EST
Nautical Twilight 6:12 AM EST 7:40 PM EST
Astronomical Twilight 5:40 AM EST 8:13 PM EST
Moon 2:30 AM EST (3/5) 12:13 PM EST (3/5)
Length of Visible Light 12h 22m
Length of Day
11h 26m
Last Quarter, 41% of the Moon is Illuminated
Mar 5
Last Quarter
Mar 11
New
Mar 19
First Quarter
Mar 27
Full
Apr 3
Last Quarter

Hourly Weather History & Observations

Time (EST) Temp. Windchill Dew Point Humidity Pressure Visibility Wind Dir Wind Speed Gust Speed Precip Events Conditions
12:15 AM 30.0 °F 25.2 °F 17.1 °F 59% 30.07 in 10.0 mi East 4.6 mph - N/A   Overcast
12:35 AM 30.0 °F 24.1 °F 16.9 °F 58% 30.06 in 10.0 mi East 5.8 mph - N/A   Overcast
12:55 AM 30.2 °F 24.3 °F 17.1 °F 58% 30.06 in 10.0 mi East 5.8 mph - N/A   Overcast
1:35 AM 30.2 °F 24.3 °F 17.1 °F 58% 30.05 in 10.0 mi East 5.8 mph - N/A   Overcast
1:55 AM 30.2 °F 25.4 °F 16.9 °F 58% 30.04 in 10.0 mi East 4.6 mph - N/A   Overcast
2:15 AM 30.0 °F 23.2 °F 16.9 °F 58% 30.04 in 10.0 mi East 6.9 mph - N/A   Overcast
2:34 AM 30.0 °F 23.2 °F 17.1 °F 59% 30.03 in 10.0 mi East 6.9 mph - N/A   Overcast
2:54 AM 29.8 °F 23.0 °F 17.1 °F 59% 30.02 in 10.0 mi East 6.9 mph - N/A   Overcast
3:15 AM 29.8 °F 23.0 °F 17.2 °F 59% 30.01 in 10.0 mi East 6.9 mph - N/A   Overcast
3:35 AM 29.7 °F 22.0 °F 16.9 °F 59% 30.00 in 10.0 mi East 8.1 mph - N/A   Overcast
3:54 AM 29.3 °F 22.3 °F 17.4 °F 61% 29.99 in 10.0 mi East 6.9 mph - N/A   Overcast
4:15 AM 29.3 °F 21.5 °F 17.8 °F 62% 29.99 in 10.0 mi East 8.1 mph - N/A   Overcast
4:35 AM 29.3 °F 21.5 °F 17.6 °F 62% 29.99 in 10.0 mi East 8.1 mph - N/A   Overcast
4:55 AM 29.3 °F 21.5 °F 17.8 °F 62% 29.98 in 10.0 mi East 8.1 mph - N/A   Overcast
5:15 AM 29.5 °F 21.8 °F 17.4 °F 61% 29.98 in 10.0 mi East 8.1 mph - N/A   Overcast
5:35 AM 29.7 °F 21.3 °F 17.6 °F 61% 29.97 in 10.0 mi East 9.2 mph - N/A   Overcast
5:55 AM 29.8 °F 20.3 °F 17.2 °F 59% 29.97 in 10.0 mi East 11.5 mph 16.1 mph N/A   Overcast
6:15 AM 29.8 °F 20.9 °F 17.4 °F 60% 29.97 in 10.0 mi East 10.4 mph - N/A   Overcast
6:34 AM 29.7 °F 20.7 °F 17.4 °F 60% 29.96 in 10.0 mi East 10.4 mph - N/A   Overcast
7:35 AM 29.3 °F 19.1 °F 18.0 °F 63% 29.95 in 10.0 mi East 12.7 mph - N/A   Overcast
7:54 AM 29.3 °F 19.1 °F 17.8 °F 62% 29.95 in 10.0 mi East 12.7 mph - N/A   Overcast
8:15 AM 29.3 °F 20.2 °F 18.1 °F 63% 29.95 in 10.0 mi ESE 10.4 mph 17.3 mph N/A   Overcast
8:35 AM 29.8 °F 19.8 °F 18.5 °F 63% 29.94 in 10.0 mi East 12.7 mph 16.1 mph N/A   Overcast
8:55 AM 30.0 °F 20.0 °F 18.1 °F 61% 29.94 in 10.0 mi East 12.7 mph 21.9 mph N/A   Overcast
9:14 AM 30.6 °F 19.0 °F 18.1 °F 60% 29.94 in 10.0 mi East 17.3 mph 23.0 mph N/A   Overcast
9:34 AM 30.4 °F 20.5 °F 17.4 °F 59% 29.93 in 10.0 mi ESE 12.7 mph 20.7 mph N/A   Overcast
9:54 AM 30.9 °F 19.1 °F 17.2 °F 57% 29.93 in 10.0 mi ESE 18.4 mph 23.0 mph N/A   Overcast
10:15 AM 30.9 °F 20.2 °F 18.0 °F 59% 29.92 in 10.0 mi East 15.0 mph 20.7 mph N/A   Overcast
10:35 AM 30.7 °F 22.0 °F 17.8 °F 59% 29.91 in 10.0 mi East 10.4 mph - N/A   Overcast
10:55 AM 30.2 °F 19.8 °F 17.4 °F 59% 29.91 in 10.0 mi East 13.8 mph 19.6 mph N/A   Overcast
11:15 AM 30.6 °F 19.8 °F 17.6 °F 59% 29.91 in 10.0 mi East 15.0 mph - N/A   Overcast
11:35 AM 30.6 °F 22.4 °F 17.4 °F 58% 29.92 in 10.0 mi ESE 9.2 mph - N/A   Overcast
11:55 AM 30.7 °F 21.4 °F 17.8 °F 59% 29.91 in 10.0 mi East 11.5 mph 16.1 mph N/A   Overcast
12:14 PM 30.9 °F 20.7 °F 17.6 °F 58% 29.90 in 10.0 mi East 13.8 mph 17.3 mph N/A   Overcast
12:34 PM 31.1 °F 20.9 °F 18.7 °F 60% 29.89 in 5.0 mi East 13.8 mph 18.4 mph N/A Snow Light Snow
12:55 PM 31.6 °F 22.1 °F 18.5 °F 58% 29.88 in 10.0 mi East 12.7 mph 17.3 mph N/A   Overcast
1:15 PM 31.8 °F 22.8 °F 18.9 °F 59% 29.86 in 10.0 mi East 11.5 mph 19.6 mph N/A   Overcast
1:35 PM 31.6 °F 20.4 °F 18.5 °F 58% 29.85 in 10.0 mi East 17.3 mph 24.2 mph N/A   Overcast
1:55 PM 32.0 °F 23.0 °F 19.9 °F 61% 29.83 in 4.0 mi ENE 11.5 mph 18.4 mph N/A Snow Light Snow
2:14 PM 31.8 °F 21.8 °F 20.7 °F 63% 29.83 in 5.0 mi East 13.8 mph 20.7 mph N/A Snow Light Snow
2:35 PM 32.0 °F 22.1 °F 20.3 °F 62% 29.82 in 5.0 mi East 13.8 mph 20.7 mph N/A Snow Light Snow
2:55 PM 31.8 °F 22.8 °F 20.5 °F 63% 29.82 in 7.0 mi ENE 11.5 mph 18.4 mph N/A Snow Light Snow
3:14 PM 31.8 °F 23.3 °F 20.1 °F 62% 29.82 in 7.0 mi East 10.4 mph 17.3 mph N/A   Overcast
3:35 PM 32.0 °F 22.5 °F 18.9 °F 58% 29.82 in 10.0 mi ENE 12.7 mph 20.7 mph N/A   Overcast
3:53 PM 31.8 °F 22.8 °F 20.8 °F 64% 29.82 in 4.0 mi East 11.5 mph 18.4 mph N/A   Haze
4:15 PM 31.5 °F 24.9 °F 22.8 °F 70% 29.81 in 3.0 mi NE 6.9 mph - N/A Snow Light Snow
4:35 PM 31.1 °F 24.5 °F 24.3 °F 76% 29.81 in 1.8 mi NE 6.9 mph - N/A Snow Light Snow
4:55 PM 31.1 °F 23.1 °F 25.0 °F 78% 29.81 in 3.0 mi North 9.2 mph - N/A Snow Light Snow
5:15 PM 30.2 °F 21.3 °F 27.3 °F 89% 29.82 in 0.8 mi NE 10.4 mph - N/A Snow Light Snow
5:35 PM 29.8 °F 19.3 °F 27.3 °F 90% 29.82 in 1.2 mi NE 13.8 mph 17.3 mph N/A Snow Light Snow
5:55 PM 29.7 °F 19.6 °F 27.5 °F 92% 29.82 in 1.0 mi NE 12.7 mph - N/A Snow Light Snow
6:14 PM 29.3 °F 20.2 °F 27.5 °F 93% 29.83 in 1.0 mi NE 10.4 mph 16.1 mph N/A Snow Light Snow
6:34 PM 29.3 °F 19.6 °F 27.5 °F 93% 29.83 in 1.0 mi NE 11.5 mph 18.4 mph N/A Snow Light Snow
6:55 PM 29.3 °F 18.2 °F 27.5 °F 93% 29.84 in 1.5 mi NE 15.0 mph 18.4 mph N/A Snow Light Snow
7:15 PM 29.3 °F 19.1 °F 27.7 °F 94% 29.84 in 1.2 mi NE 12.7 mph 17.3 mph N/A Snow Light Snow
7:35 PM 29.3 °F 18.6 °F 27.9 °F 94% 29.84 in 1.0 mi NNE 13.8 mph 19.6 mph N/A Snow Snow
7:55 PM 29.3 °F 17.7 °F 27.5 °F 93% 29.84 in 1.0 mi NE 16.1 mph - N/A Snow Light Snow
8:14 PM 29.1 °F 17.9 °F 27.5 °F 94% 29.84 in 1.0 mi NNE 15.0 mph 18.4 mph N/A Snow Snow
8:34 PM 28.9 °F 19.2 °F 27.3 °F 94% 29.84 in 1.2 mi NNE 11.5 mph - N/A Snow Light Snow
8:55 PM 28.6 °F 18.2 °F 27.1 °F 94% 29.84 in 0.8 mi NNE 12.7 mph - N/A Snow Snow
9:14 PM 28.4 °F 18.0 °F 27.0 °F 94% 29.85 in 0.8 mi NNE 12.7 mph - N/A Snow Snow
9:35 PM 28.4 °F 18.5 °F 26.6 °F 93% 29.86 in 1.2 mi NNE 11.5 mph - N/A Snow Light Snow
9:55 PM 28.4 °F 18.0 °F 25.2 °F 88% 29.86 in 5.0 mi NNE 12.7 mph - N/A Snow Light Snow
10:15 PM 28.8 °F 16.2 °F 23.7 °F 81% 29.87 in 10.0 mi NNE 18.4 mph 23.0 mph N/A   Overcast
10:34 PM 28.4 °F 18.0 °F 23.4 °F 81% 29.88 in 10.0 mi NE 12.7 mph - N/A   Overcast
10:55 PM 28.4 °F 18.0 °F 23.2 °F 81% 29.89 in 10.0 mi NE 12.7 mph 18.4 mph N/A   Overcast
11:15 PM 28.2 °F 15.9 °F 23.2 °F 81% 29.89 in 10.0 mi NE 17.3 mph 20.7 mph N/A   Overcast
11:34 PM 28.2 °F 16.8 °F 23.4 °F 82% 29.90 in 10.0 mi NE 15.0 mph 19.6 mph N/A   Overcast
11:55 PM 28.0 °F 17.0 °F 23.7 °F 84% 29.91 in 7.0 mi NE 13.8 mph 20.7 mph N/A Snow Light Snow